Time,TemperatureF,DewpointF,PressureIn,WindDirection,WindDirectionDegrees,WindSpeedMPH,WindSpeedGustMPH,Humidity,HourlyPrecipIn,Conditions,Clouds,dailyrainin,SoftwareType,DateUTC
2013-01-18 00:03:00,37.8,23.5,30.48,ENE,68,0.0,0.0,56,0.00,CLR,,0.00,WeatherDisplay:10.37,2013-01-18 06:03:00,
2013-01-18 00:08:00,37.8,23.5,30.48,ENE,68,0.0,0.0,56,0.00,CLR,,0.00,WeatherDisplay:10.37,2013-01-18 06:08:00,
2013-01-18 00:13:00,37.6,23.3,30.48,ENE,68,1.1,1.1,56,0.00,CLR,,0.00,WeatherDisplay:10.37,2013-01-18 06:13:00,
2013-01-18 00:18:00,37.6,23.3,30.48,ENE,68,1.1,1.1,56,0.00,CLR,,0.00,WeatherDisplay:10.37,2013-01-18 06:18:00,
2013-01-18 00:23:00,37.2,22.9,30.48,ENE,68,0.0,0.0,56,0.00,CLR,,0.00,WeatherDisplay:10.37,2013-01-18 06:23:00,
2013-01-18 00:28:00,37.4,23.1,30.48,ENE,68,1.1,0.0,56,0.00,CLR,,0.00,WeatherDisplay:10.37,2013-01-18 06:28:00,
2013-01-18 00:33:00,37.9,23.6,30.48,ENE,68,1.6,1.6,56,0.00,CLR,,0.00,WeatherDisplay:10.37,2013-01-18 06:33:00,
2013-01-18 00:38:00,38.1,23.8,30.48,ENE,68,1.4,1.4,56,0.00,CLR,,0.00,WeatherDisplay:10.37,2013-01-18 06:38:00,
2013-01-18 00:43:00,38.1,23.8,30.48,ENE,68,1.1,0.0,56,0.00,CLR,,0.00,WeatherDisplay:10.37,2013-01-18 06:43:00,
2013-01-18 00:48:00,38.5,24.1,30.48,ENE,68,1.1,1.1,56,0.00,CLR,,0.00,WeatherDisplay:10.37,2013-01-18 06:48:00,
2013-01-18 00:53:00,38.3,24.0,30.48,ENE,68,0.0,0.0,56,0.00,CLR,,0.00,WeatherDisplay:10.37,2013-01-18 06:53:00,
2013-01-18 00:58:00,37.9,23.6,30.48,ENE,68,0.0,0.0,56,0.00,CLR,,0.00,WeatherDisplay:10.37,2013-01-18 06:58:00,
2013-01-18 01:03:00,37.9,23.6,30.48,ENE,68,0.0,0.9,56,0.00,CLR,,0.00,WeatherDisplay:10.37,2013-01-18 07:03:00,
2013-01-18 01:08:00,38.1,23.8,30.48,ENE,68,0.0,0.0,56,0.00,CLR,,0.00,WeatherDisplay:10.37,2013-01-18 07:08:00,
2013-01-18 01:13:00,38.1,23.8,30.48,ENE,68,0.0,0.0,56,0.00,CLR,,0.00,WeatherDisplay:10.37,2013-01-18 07:13:00,
2013-01-18 01:18:00,37.8,23.5,30.48,ENE,68,0.0,0.0,56,0.00,CLR,,0.00,WeatherDisplay:10.37,2013-01-18 07:18:00,
2013-01-18 01:23:00,37.9,23.6,30.48,ENE,68,1.1,1.1,56,0.00,CLR,,0.00,WeatherDisplay:10.37,2013-01-18 07:23:00,
2013-01-18 01:28:00,38.1,23.8,30.48,ENE,68,2.3,2.3,56,0.00,CLR,,0.00,WeatherDisplay:10.37,2013-01-18 07:28:00,
2013-01-18 01:33:00,37.8,23.5,30.48,ENE,68,1.1,0.0,56,0.00,CLR,,0.00,WeatherDisplay:10.37,2013-01-18 07:33:00,
2013-01-18 01:39:00,37.6,23.3,30.48,ENE,68,0.0,0.0,56,0.00,CLR,,0.00,WeatherDisplay:10.37,2013-01-18 07:39:00,
2013-01-18 01:44:00,37.6,23.3,30.51,ENE,68,2.3,2.3,56,0.00,CLR,,0.00,WeatherDisplay:10.37,2013-01-18 07:44:00,
2013-01-18 01:49:00,37.4,23.1,30.51,ENE,68,0.0,0.0,56,0.00,CLR,,0.00,WeatherDisplay:10.37,2013-01-18 07:49:00,
2013-01-18 01:54:00,37.4,23.1,30.51,ENE,68,0.0,0.0,56,0.00,CLR,,0.00,WeatherDisplay:10.37,2013-01-18 07:54:00,
2013-01-18 01:59:00,37.0,22.8,30.51,ENE,68,0.0,0.0,56,0.00,CLR,,0.00,WeatherDisplay:10.37,2013-01-18 07:59:00,
2013-01-18 02:04:00,37.0,22.8,30.51,ENE,68,0.0,0.0,56,0.00,CLR,,0.00,WeatherDisplay:10.37,2013-01-18 08:04:00,
2013-01-18 02:09:00,37.6,99.9,30.51,ENE,68,0.0,0.0,132,0.00,CLR,,0.00,WeatherDisplay:10.37,2013-01-18 08:09:00,
2013-01-18 02:14:00,37.6,23.3,30.48,ENE,68,0.0,0.0,56,0.00,CLR,,0.00,WeatherDisplay:10.37,2013-01-18 08:14:00,
2013-01-18 02:19:00,37.2,22.9,30.48,ENE,68,0.0,0.0,56,0.00,CLR,,0.00,WeatherDisplay:10.37,2013-01-18 08:19:00,
2013-01-18 02:24:00,36.9,22.6,30.48,ENE,68,0.0,0.0,56,0.00,CLR,,0.00,WeatherDisplay:10.37,2013-01-18 08:24:00,
2013-01-18 02:29:00,36.7,22.4,30.48,ENE,68,1.1,1.4,56,0.00,CLR,,0.00,WeatherDisplay:10.37,2013-01-18 08:29:00,
2013-01-18 02:34:00,36.3,22.1,30.48,ENE,68,1.1,1.1,56,0.00,CLR,,0.00,WeatherDisplay:10.37,2013-01-18 08:34:00,
2013-01-18 02:39:00,36.7,22.4,30.48,ENE,68,1.4,1.4,56,0.00,CLR,,0.00,WeatherDisplay:10.37,2013-01-18 08:39:00,
2013-01-18 02:44:00,36.9,22.6,30.51,ENE,68,2.3,2.3,56,0.00,CLR,,0.00,WeatherDisplay:10.37,2013-01-18 08:44:00,
2013-01-18 02:49:00,36.9,22.6,30.51,ENE,68,2.3,2.3,56,0.00,CLR,,0.00,WeatherDisplay:10.37,2013-01-18 08:49:00,
2013-01-18 02:54:00,36.9,22.6,30.51,ENE,68,1.1,0.0,56,0.00,CLR,,0.00,WeatherDisplay:10.37,2013-01-18 08:54:00,
2013-01-18 02:59:00,37.0,22.8,30.51,ENE,68,0.0,0.0,56,0.00,CLR,,0.00,WeatherDisplay:10.37,2013-01-18 08:59:00,
2013-01-18 03:04:00,36.7,22.4,30.51,ENE,68,0.0,0.0,56,0.00,CLR,,0.00,WeatherDisplay:10.37,2013-01-18 09:04:00,
2013-01-18 03:09:00,36.5,25.8,30.51,ENE,68,0.0,0.0,65,0.00,CLR,,0.00,WeatherDisplay:10.37,2013-01-18 09:09:00,
2013-01-18 03:14:00,37.4,23.1,30.51,ENE,68,2.3,2.3,56,0.00,CLR,,0.00,WeatherDisplay:10.37,2013-01-18 09:14:00,
2013-01-18 03:19:00,37.9,26.1,30.51,NW,315,1.1,1.1,62,0.00,CLR,,0.00,WeatherDisplay:10.37,2013-01-18 09:19:00,
2013-01-18 03:24:00,38.3,26.4,30.51,NW,315,1.1,1.4,62,0.00,CLR,,0.00,WeatherDisplay:10.37,2013-01-18 09:24:00,
2013-01-18 03:29:00,38.3,26.4,30.51,NW,315,1.1,1.1,62,0.00,CLR,,0.00,WeatherDisplay:10.37,2013-01-18 09:29:00,
2013-01-18 03:34:00,38.3,26.4,30.51,NW,315,1.1,1.1,62,0.00,CLR,,0.00,WeatherDisplay:10.37,2013-01-18 09:34:00,
2013-01-18 03:39:00,37.9,26.1,30.51,NW,315,0.0,0.0,62,0.00,CLR,,0.00,WeatherDisplay:10.37,2013-01-18 09:39:00,
2013-01-18 03:44:00,37.4,25.6,30.51,NW,315,0.0,0.0,62,0.00,CLR,,0.00,WeatherDisplay:10.37,2013-01-18 09:44:00,
2013-01-18 03:49:00,37.4,25.6,30.51,NW,315,1.1,1.1,62,0.00,CLR,,0.00,WeatherDisplay:10.37,2013-01-18 09:49:00,
2013-01-18 03:54:00,37.6,25.7,30.51,NW,315,1.1,0.0,62,0.00,CLR,,0.00,WeatherDisplay:10.37,2013-01-18 09:54:00,
2013-01-18 03:59:00,37.4,25.6,30.48,NW,315,1.1,1.4,62,0.00,CLR,,0.00,WeatherDisplay:10.37,2013-01-18 09:59:00,
2013-01-18 04:04:00,37.9,26.1,30.48,NW,315,1.1,0.0,62,0.00,CLR,,0.00,WeatherDisplay:10.37,2013-01-18 10:04:00,
2013-01-18 04:09:00,37.9,26.1,30.48,NW,315,1.1,1.4,62,0.00,CLR,,0.00,WeatherDisplay:10.37,2013-01-18 10:09:00,
2013-01-18 04:14:00,37.9,26.1,30.51,NW,315,2.3,2.3,62,0.00,CLR,,0.00,WeatherDisplay:10.37,2013-01-18 10:14:00,
2013-01-18 04:19:00,37.9,26.1,30.51,NW,315,1.1,1.1,62,0.00,CLR,,0.00,WeatherDisplay:10.37,2013-01-18 10:19:00,
2013-01-18 04:24:00,37.8,25.9,30.51,NW,315,1.1,1.1,62,0.00,CLR,,0.00,WeatherDisplay:10.37,2013-01-18 10:24:00,
2013-01-18 04:29:00,37.4,25.6,30.51,NW,315,2.3,2.3,62,0.00,CLR,,0.00,WeatherDisplay:10.37,2013-01-18 10:29:00,
2013-01-18 04:34:00,37.2,26.5,30.51,NW,315,1.6,1.6,65,0.00,CLR,,0.00,WeatherDisplay:10.37,2013-01-18 10:34:00,
2013-01-18 04:39:00,37.0,26.4,30.51,NW,315,1.1,1.1,65,0.00,CLR,,0.00,WeatherDisplay:10.37,2013-01-18 10:39:00,
2013-01-18 04:44:00,36.7,26.0,30.48,NW,315,1.1,1.1,65,0.00,CLR,,0.00,WeatherDisplay:10.37,2013-01-18 10:44:00,
2013-01-18 04:49:00,36.3,25.7,30.48,NW,315,0.0,0.0,65,0.00,CLR,,0.00,WeatherDisplay:10.37,2013-01-18 10:49:00,
2013-01-18 04:54:00,36.3,25.7,30.48,NW,315,1.4,1.4,65,0.00,CLR,,0.00,WeatherDisplay:10.37,2013-01-18 10:54:00,
2013-01-18 04:59:00,36.1,21.9,30.48,NW,315,0.0,0.0,56,0.00,CLR,,0.00,WeatherDisplay:10.37,2013-01-18 10:59:00,
2013-01-18 05:04:00,36.1,21.9,30.48,NW,315,0.0,0.0,56,0.00,CLR,,0.00,WeatherDisplay:10.37,2013-01-18 11:04:00,
2013-01-18 05:09:00,36.1,21.9,30.48,NW,315,1.1,1.1,56,0.00,CLR,,0.00,WeatherDisplay:10.37,2013-01-18 11:09:00,
2013-01-18 05:14:00,36.1,25.5,30.48,NW,315,0.0,0.0,65,0.00,CLR,,0.00,WeatherDisplay:10.37,2013-01-18 11:14:00,
2013-01-18 05:19:00,36.1,25.5,30.48,NW,315,2.3,2.3,65,0.00,CLR,,0.00,WeatherDisplay:10.37,2013-01-18 11:19:00,
2013-01-18 05:24:00,36.0,25.3,30.48,NW,315,1.1,1.1,65,0.00,CLR,,0.00,WeatherDisplay:10.37,2013-01-18 11:24:00,
2013-01-18 05:29:00,35.6,21.4,30.48,NW,315,0.0,0.0,56,0.00,CLR,,0.00,WeatherDisplay:10.37,2013-01-18 11:29:00,
2013-01-18 05:34:00,35.2,22.3,30.48,NW,315,0.0,0.0,59,0.00,CLR,,0.00,WeatherDisplay:10.37,2013-01-18 11:34:00,
2013-01-18 05:39:00,35.2,22.3,30.48,NW,315,1.1,1.1,59,0.00,CLR,,0.00,WeatherDisplay:10.37,2013-01-18 11:39:00,
2013-01-18 05:44:00,34.9,22.0,30.51,NW,315,0.0,0.0,59,0.00,CLR,,0.00,WeatherDisplay:10.37,2013-01-18 11:44:00,
2013-01-18 05:49:00,34.9,22.0,30.51,NW,315,0.0,0.0,59,0.00,CLR,,0.00,WeatherDisplay:10.37,2013-01-18 11:49:00,
2013-01-18 05:54:00,35.1,22.2,30.51,NW,315,0.0,0.0,59,0.00,CLR,,0.00,WeatherDisplay:10.37,2013-01-18 11:54:00,
2013-01-18 05:59:00,35.1,22.2,30.48,NW,315,1.6,1.6,59,0.00,CLR,,0.00,WeatherDisplay:10.37,2013-01-18 11:59:00,
2013-01-18 06:04:00,34.9,22.0,30.48,NW,315,0.0,0.0,59,0.00,CLR,,0.00,WeatherDisplay:10.37,2013-01-18 12:04:00,
2013-01-18 06:09:00,34.9,22.0,30.48,NW,315,0.0,0.0,59,0.00,CLR,,0.00,WeatherDisplay:10.37,2013-01-18 12:09:00,
2013-01-18 06:14:00,35.1,22.2,30.48,NW,315,1.1,1.1,59,0.00,CLR,,0.00,WeatherDisplay:10.37,2013-01-18 12:14:00,
2013-01-18 06:19:00,34.9,22.0,30.48,NW,315,1.1,1.4,59,0.00,CLR,,0.00,WeatherDisplay:10.37,2013-01-18 12:19:00,
2013-01-18 06:24:00,35.1,24.5,30.48,NW,315,1.1,1.1,65,0.00,CLR,,0.00,WeatherDisplay:10.37,2013-01-18 12:24:00,
2013-01-18 06:29:00,35.1,24.5,30.48,NW,315,1.1,1.1,65,0.00,CLR,,0.00,WeatherDisplay:10.37,2013-01-18 12:29:00,
2013-01-18 06:34:00,34.7,24.1,30.48,NW,315,1.1,0.0,65,0.00,CLR,,0.00,WeatherDisplay:10.37,2013-01-18 12:34:00,
2013-01-18 06:39:00,34.5,24.0,30.48,NW,315,0.0,0.0,65,0.00,CLR,,0.00,WeatherDisplay:10.37,2013-01-18 12:39:00,
2013-01-18 06:44:00,34.5,24.0,30.51,NW,315,1.1,0.0,65,0.00,CLR,,0.00,WeatherDisplay:10.37,2013-01-18 12:44:00,
2013-01-18 06:49:00,34.9,24.3,30.51,NW,315,1.1,0.0,65,0.00,CLR,,0.00,WeatherDisplay:10.37,2013-01-18 12:49:00,
2013-01-18 06:54:00,35.4,24.8,30.51,NW,315,1.1,1.1,65,0.00,CLR,,0.00,WeatherDisplay:10.37,2013-01-18 12:54:00,
2013-01-18 06:59:00,35.8,25.2,30.51,NW,315,2.3,2.3,65,0.00,CLR,,0.00,WeatherDisplay:10.37,2013-01-18 12:59:00,
2013-01-18 07:04:00,36.0,25.3,30.51,NW,315,2.3,2.3,65,0.00,CLR,,0.00,WeatherDisplay:10.37,2013-01-18 13:04:00,
2013-01-18 07:09:00,36.1,25.5,30.51,NW,315,2.3,2.3,65,0.00,CLR,,0.00,WeatherDisplay:10.37,2013-01-18 13:09:00,
2013-01-18 07:14:00,36.1,25.5,30.51,NW,315,2.3,2.3,65,0.00,CLR,,0.00,WeatherDisplay:10.37,2013-01-18 13:14:00,
2013-01-18 07:19:00,36.3,25.7,30.51,NW,315,1.1,2.2,65,0.00,CLR,,0.00,WeatherDisplay:10.37,2013-01-18 13:19:00,
2013-01-18 07:24:00,36.3,25.7,30.51,NW,315,2.3,2.3,65,0.00,CLR,,0.00,WeatherDisplay:10.37,2013-01-18 13:24:00,
2013-01-18 07:29:00,36.3,25.7,30.51,NW,315,1.1,0.0,65,0.00,CLR,,0.00,WeatherDisplay:10.37,2013-01-18 13:29:00,
2013-01-18 07:34:00,36.5,25.8,30.51,NW,315,2.3,2.3,65,0.00,CLR,,0.00,WeatherDisplay:10.37,2013-01-18 13:34:00,
2013-01-18 07:39:00,36.7,26.0,30.51,NW,315,2.3,2.3,65,0.00,CLR,,0.00,WeatherDisplay:10.37,2013-01-18 13:39:00,
2013-01-18 07:44:00,37.0,26.4,30.51,North,0,2.3,2.3,65,0.00,CLR,,0.00,WeatherDisplay:10.37,2013-01-18 13:44:00,
2013-01-18 07:49:00,37.4,25.6,30.51,WNW,292,3.6,3.6,62,0.00,CLR,,0.00,WeatherDisplay:10.37,2013-01-18 13:49:00,
2013-01-18 07:54:00,37.8,25.9,30.51,WNW,292,2.4,2.6,62,0.00,CLR,,0.00,WeatherDisplay:10.37,2013-01-18 13:54:00,
2013-01-18 07:59:00,38.1,26.2,30.51,NW,315,3.5,3.5,62,0.00,CLR,,0.00,WeatherDisplay:10.37,2013-01-18 13:59:00,
2013-01-18 08:04:00,38.8,26.9,30.51,WNW,292,3.5,3.5,62,0.00,CLR,,0.00,WeatherDisplay:10.37,2013-01-18 14:04:00,
2013-01-18 08:09:00,39.4,27.4,30.51,WNW,292,2.3,2.6,62,0.00,CLR,,0.00,WeatherDisplay:10.37,2013-01-18 14:09:00,
2013-01-18 08:14:00,40.1,28.1,30.48,NW,315,3.5,3.5,62,0.00,CLR,,0.00,WeatherDisplay:10.37,2013-01-18 14:14:00,
2013-01-18 08:19:00,40.6,28.6,30.48,North,0,3.5,3.5,62,0.00,CLR,,0.00,WeatherDisplay:10.37,2013-01-18 14:19:00,
2013-01-18 08:24:00,41.0,29.0,30.48,NNE,22,3.5,3.5,62,0.00,CLR,,0.00,WeatherDisplay:10.37,2013-01-18 14:24:00,
2013-01-18 08:29:00,41.9,29.8,30.48,NW,315,3.5,3.5,62,0.00,CLR,,0.00,WeatherDisplay:10.37,2013-01-18 14:29:00,
2013-01-18 08:35:00,43.0,29.6,30.48,NNW,338,2.3,2.3,59,0.00,CLR,,0.00,WeatherDisplay:10.37,2013-01-18 14:35:00,
2013-01-18 08:40:00,43.9,30.5,30.48,NNW,338,3.5,3.5,59,0.00,CLR,,0.00,WeatherDisplay:10.37,2013-01-18 14:40:00,
2013-01-18 08:45:00,45.0,31.5,30.51,NNE,22,3.5,3.5,59,0.00,CLR,,0.00,WeatherDisplay:10.37,2013-01-18 14:45:00,
2013-01-18 08:50:00,45.9,32.3,30.51,North,0,3.5,3.5,59,0.00,CLR,,0.00,WeatherDisplay:10.37,2013-01-18 14:50:00,
2013-01-18 08:55:00,46.2,32.7,30.51,NNE,22,2.3,2.3,59,0.00,CLR,,0.00,WeatherDisplay:10.37,2013-01-18 14:55:00,
2013-01-18 09:00:00,46.8,31.9,30.51,NE,45,4.6,4.6,56,0.00,CLR,,0.00,WeatherDisplay:10.37,2013-01-18 15:00:00,
2013-01-18 09:05:00,47.1,32.2,30.51,ENE,68,3.5,3.5,56,0.00,CLR,,0.00,WeatherDisplay:10.37,2013-01-18 15:05:00,
2013-01-18 09:10:00,47.8,32.9,30.51,ENE,68,4.6,4.6,56,0.00,CLR,,0.00,WeatherDisplay:10.37,2013-01-18 15:10:00,
2013-01-18 09:15:00,48.4,33.4,30.51,East,90,3.5,3.5,56,0.00,CLR,,0.00,WeatherDisplay:10.37,2013-01-18 15:15:00,
2013-01-18 09:20:00,49.1,34.1,30.51,ENE,68,5.8,5.8,56,0.00,CLR,,0.00,WeatherDisplay:10.37,2013-01-18 15:20:00,
2013-01-18 09:25:00,49.8,34.7,30.51,NW,315,3.5,3.5,56,0.00,CLR,,0.00,WeatherDisplay:10.37,2013-01-18 15:25:00,
2013-01-18 09:30:00,50.9,35.7,30.51,ENE,68,4.7,4.7,56,0.00,CLR,,0.00,WeatherDisplay:10.37,2013-01-18 15:30:00,
2013-01-18 09:35:00,51.6,36.4,30.51,NE,45,5.8,5.8,56,0.00,CLR,,0.00,WeatherDisplay:10.37,2013-01-18 15:35:00,
2013-01-18 09:40:00,52.7,36.0,30.51,NE,45,5.8,5.8,53,0.00,CLR,,0.00,WeatherDisplay:10.37,2013-01-18 15:40:00,
2013-01-18 09:45:00,54.0,37.2,30.51,East,90,4.6,4.6,53,0.00,CLR,,0.00,WeatherDisplay:10.37,2013-01-18 15:45:00,
2013-01-18 09:50:00,54.5,37.7,30.51,East,90,3.5,3.5,53,0.00,CLR,,0.00,WeatherDisplay:10.37,2013-01-18 15:50:00,
2013-01-18 09:55:00,55.6,37.2,30.51,ENE,68,6.0,6.0,50,0.00,CLR,,0.00,WeatherDisplay:10.37,2013-01-18 15:55:00,
2013-01-18 10:00:00,56.3,37.9,30.51,East,90,3.5,3.5,50,0.00,CLR,,0.00,WeatherDisplay:10.37,2013-01-18 16:00:00,
2013-01-18 10:05:00,56.3,37.9,30.51,East,90,5.8,5.8,50,0.00,CLR,,0.00,WeatherDisplay:10.37,2013-01-18 16:05:00,
2013-01-18 10:10:00,57.4,38.9,30.51,East,90,4.6,4.6,50,0.00,CLR,,0.00,WeatherDisplay:10.37,2013-01-18 16:10:00,
2013-01-18 10:15:00,57.6,39.0,30.51,ESE,112,5.8,5.8,50,0.00,CLR,,0.00,WeatherDisplay:10.37,2013-01-18 16:15:00,
2013-01-18 10:20:00,57.9,39.4,30.51,NE,45,5.8,5.8,50,0.00,CLR,,0.00,WeatherDisplay:10.37,2013-01-18 16:20:00,
2013-01-18 10:25:00,58.3,39.7,30.51,ESE,112,3.5,3.5,50,0.00,CLR,,0.00,WeatherDisplay:10.37,2013-01-18 16:25:00,
2013-01-18 10:30:00,58.3,39.7,30.51,ENE,68,6.9,6.9,50,0.00,CLR,,0.00,WeatherDisplay:10.37,2013-01-18 16:30:00,
2013-01-18 10:35:00,59.0,40.4,30.51,East,90,5.8,5.8,50,0.00,CLR,,0.00,WeatherDisplay:10.37,2013-01-18 16:35:00,
2013-01-18 10:40:00,59.7,41.0,30.51,East,90,4.6,4.6,50,0.00,CLR,,0.00,WeatherDisplay:10.37,2013-01-18 16:40:00,
2013-01-18 10:45:00,59.9,41.2,30.51,East,90,5.8,5.8,50,0.00,CLR,,0.00,WeatherDisplay:10.37,2013-01-18 16:45:00,
2013-01-18 10:50:00,59.5,40.9,30.51,ESE,112,4.6,4.6,50,0.00,CLR,,0.00,WeatherDisplay:10.37,2013-01-18 16:50:00,
2013-01-18 10:55:00,60.3,41.5,30.51,East,90,5.8,5.8,50,0.00,CLR,,0.00,WeatherDisplay:10.37,2013-01-18 16:55:00,
2013-01-18 11:00:00,60.4,41.7,30.48,SE,135,8.1,8.1,50,0.00,CLR,,0.00,WeatherDisplay:10.37,2013-01-18 17:00:00,
2013-01-18 11:05:00,60.4,41.7,30.48,East,90,4.9,4.9,50,0.00,CLR,,0.00,WeatherDisplay:10.37,2013-01-18 17:05:00,
2013-01-18 11:10:00,61.0,40.6,30.48,SE,135,4.6,4.6,47,0.00,CLR,,0.00,WeatherDisplay:10.37,2013-01-18 17:10:00,
2013-01-18 11:15:00,61.5,41.1,30.51,ENE,68,5.8,5.8,47,0.00,CLR,,0.00,WeatherDisplay:10.37,2013-01-18 17:15:00,
2013-01-18 11:20:00,61.9,41.4,30.51,North,0,5.8,5.8,47,0.00,CLR,,0.00,WeatherDisplay:10.37,2013-01-18 17:20:00,
2013-01-18 11:25:00,63.1,42.6,30.51,ESE,112,5.9,5.9,47,0.00,CLR,,0.00,WeatherDisplay:10.37,2013-01-18 17:25:00,
2013-01-18 11:30:00,63.3,42.7,30.51,East,90,4.6,4.6,47,0.00,CLR,,0.00,WeatherDisplay:10.37,2013-01-18 17:30:00,
2013-01-18 11:35:00,63.5,42.9,30.51,SE,135,4.6,4.6,47,0.00,CLR,,0.00,WeatherDisplay:10.37,2013-01-18 17:35:00,
2013-01-18 11:40:00,63.9,43.2,30.51,SSE,158,4.6,4.6,47,0.00,CLR,,0.00,WeatherDisplay:10.37,2013-01-18 17:40:00,
2013-01-18 11:45:00,63.7,43.1,30.48,East,90,5.8,5.8,47,0.00,CLR,,0.00,WeatherDisplay:10.37,2013-01-18 17:45:00,
2013-01-18 11:50:00,64.0,43.4,30.48,NE,45,6.9,6.9,47,0.00,CLR,,0.00,WeatherDisplay:10.37,2013-01-18 17:50:00,
2013-01-18 11:55:00,64.4,42.0,30.48,NNE,22,8.1,8.1,44,0.00,CLR,,0.00,WeatherDisplay:10.37,2013-01-18 17:55:00,
2013-01-18 12:00:00,65.3,42.8,30.48,East,90,2.4,2.4,44,0.00,CLR,,0.00,WeatherDisplay:10.37,2013-01-18 18:00:00,
2013-01-18 12:05:00,65.3,42.8,30.48,SE,135,5.8,5.8,44,0.00,CLR,,0.00,WeatherDisplay:10.37,2013-01-18 18:05:00,
2013-01-18 12:10:00,66.0,43.5,30.48,SSW,202,3.5,3.5,44,0.00,CLR,,0.00,WeatherDisplay:10.37,2013-01-18 18:10:00,
2013-01-18 12:15:00,65.7,43.1,30.45,SSE,158,3.5,3.8,44,0.00,CLR,,0.00,WeatherDisplay:10.37,2013-01-18 18:15:00,
2013-01-18 12:20:00,65.1,42.7,30.45,SSE,158,5.8,5.8,44,0.00,CLR,,0.00,WeatherDisplay:10.37,2013-01-18 18:20:00,
2013-01-18 12:25:00,65.1,42.7,30.45,SSW,202,5.8,5.8,44,0.00,CLR,,0.00,WeatherDisplay:10.37,2013-01-18 18:25:00,
2013-01-18 12:30:00,65.1,42.7,30.42,SSE,158,3.5,3.5,44,0.00,CLR,,0.00,WeatherDisplay:10.37,2013-01-18 18:30:00,
2013-01-18 12:35:00,65.1,42.7,30.42,SSE,158,4.6,4.6,44,0.00,CLR,,0.00,WeatherDisplay:10.37,2013-01-18 18:35:00,
2013-01-18 12:40:00,65.7,43.1,30.42,South,180,3.5,3.5,44,0.00,CLR,,0.00,WeatherDisplay:10.37,2013-01-18 18:40:00,
2013-01-18 12:45:00,65.7,43.1,30.45,ENE,68,5.8,5.8,44,0.00,CLR,,0.00,WeatherDisplay:10.37,2013-01-18 18:45:00,
2013-01-18 12:50:00,66.2,43.6,30.45,East,90,5.8,5.8,44,0.00,CLR,,0.00,WeatherDisplay:10.37,2013-01-18 18:50:00,
2013-01-18 12:55:00,65.8,43.3,30.45,ESE,112,5.8,5.8,44,0.00,CLR,,0.00,WeatherDisplay:10.37,2013-01-18 18:55:00,
2013-01-18 13:00:00,66.4,43.8,30.42,SSE,158,5.8,5.8,44,0.00,CLR,,0.00,WeatherDisplay:10.37,2013-01-18 19:00:00,
2013-01-18 13:05:00,66.4,43.8,30.42,East,90,4.6,4.6,44,0.00,CLR,,0.00,WeatherDisplay:10.37,2013-01-18 19:05:00,
2013-01-18 13:10:00,66.7,44.1,30.42,SE,135,5.8,5.8,44,0.00,CLR,,0.00,WeatherDisplay:10.37,2013-01-18 19:10:00,
2013-01-18 13:15:00,66.7,44.1,30.40,ENE,68,3.5,3.5,44,0.00,CLR,,0.00,WeatherDisplay:10.37,2013-01-18 19:15:00,
2013-01-18 13:20:00,66.4,43.8,30.40,NE,45,5.8,5.8,44,0.00,CLR,,0.00,WeatherDisplay:10.37,2013-01-18 19:20:00,
2013-01-18 13:25:00,67.1,44.4,30.40,East,90,2.3,2.6,44,0.00,CLR,,0.00,WeatherDisplay:10.37,2013-01-18 19:25:00,
2013-01-18 13:30:00,67.1,44.4,30.40,ESE,112,4.6,4.7,44,0.00,CLR,,0.00,WeatherDisplay:10.37,2013-01-18 19:30:00,
2013-01-18 13:35:00,66.9,44.3,30.40,WSW,248,2.3,2.3,44,0.00,CLR,,0.00,WeatherDisplay:10.37,2013-01-18 19:35:00,
2013-01-18 13:40:00,67.3,44.6,30.40,NNE,22,4.6,4.6,44,0.00,CLR,,0.00,WeatherDisplay:10.37,2013-01-18 19:40:00,
2013-01-18 13:45:00,67.5,44.8,30.40,NE,45,4.6,4.7,44,0.00,CLR,,0.00,WeatherDisplay:10.37,2013-01-18 19:45:00,
2013-01-18 13:50:00,67.1,44.4,30.40,ESE,112,5.8,5.8,44,0.00,CLR,,0.00,WeatherDisplay:10.37,2013-01-18 19:50:00,
2013-01-18 13:55:00,67.5,44.8,30.40,SSW,202,5.8,5.8,44,0.00,CLR,,0.00,WeatherDisplay:10.37,2013-01-18 19:55:00,
2013-01-18 14:00:00,68.0,45.3,30.37,SE,135,5.8,5.8,44,0.00,CLR,,0.00,WeatherDisplay:10.37,2013-01-18 20:00:00,
2013-01-18 14:05:00,67.8,45.1,30.37,ESE,112,5.8,5.8,44,0.00,CLR,,0.00,WeatherDisplay:10.37,2013-01-18 20:05:00,
2013-01-18 14:11:00,67.5,44.8,30.37,NE,45,5.8,5.8,44,0.00,CLR,,0.00,WeatherDisplay:10.37,2013-01-18 20:11:00,
2013-01-18 14:16:00,67.6,44.9,30.37,East,90,5.8,5.8,44,0.00,CLR,,0.00,WeatherDisplay:10.37,2013-01-18 20:16:00,
2013-01-18 14:21:00,68.0,45.3,30.37,SSW,202,6.2,6.2,44,0.00,CLR,,0.00,WeatherDisplay:10.37,2013-01-18 20:21:00,
2013-01-18 14:24:00,67.8,45.1,30.37,ESE,112,5.8,5.8,44,0.00,CLR,,0.00,WeatherDisplay:10.37,2013-01-18 20:24:00,
2013-01-18 14:27:00,67.8,45.1,30.37,ESE,112,5.8,5.8,44,0.00,CLR,,0.00,WeatherDisplay:10.37,2013-01-18 20:27:00,
2013-01-18 14:32:00,67.8,45.1,30.37,ESE,112,5.8,5.8,44,0.00,CLR,,0.00,WeatherDisplay:10.37,2013-01-18 20:32:00,
2013-01-18 15:19:00,67.8,45.1,30.37,ESE,112,5.8,5.8,44,0.00,CLR,,0.00,WeatherDisplay:10.37,2013-01-18 21:19:00,
2013-01-18 15:24:00,67.8,45.1,30.37,ESE,112,5.8,5.8,44,0.00,CLR,,0.00,WeatherDisplay:10.37,2013-01-18 21:24:00,
2013-01-18 15:29:00,67.8,45.1,30.37,ESE,112,5.8,5.8,44,0.00,CLR,,0.00,WeatherDisplay:10.37,2013-01-18 21:29:00,
2013-01-18 15:51:00,67.8,45.1,30.37,ESE,112,5.8,5.8,44,0.00,CLR,,0.00,WeatherDisplay:10.37,2013-01-18 21:51:00,
2013-01-18 15:57:00,67.8,45.1,30.37,ESE,112,5.8,5.8,44,0.00,CLR,,0.00,WeatherDisplay:10.37,2013-01-18 21:57:00,
2013-01-18 16:05:00,67.8,45.1,30.37,ESE,112,5.8,5.8,44,0.00,CLR,,0.00,WeatherDisplay:10.37,2013-01-18 22:05:00,
2013-01-18 16:29:00,67.8,45.1,30.37,ESE,112,5.8,5.8,44,0.00,CLR,,0.00,WeatherDisplay:10.37,2013-01-18 22:29:00,
2013-01-18 16:55:00,67.8,45.1,30.37,ESE,112,5.8,5.8,44,0.00,CLR,,0.00,WeatherDisplay:10.37,2013-01-18 22:55:00,
2013-01-18 17:03:00,67.8,45.1,30.37,ESE,112,5.8,5.8,44,0.00,CLR,,0.00,WeatherDisplay:10.37,2013-01-18 23:03:00,
2013-01-18 17:19:00,67.8,45.1,30.37,ESE,112,5.8,5.8,44,0.00,CLR,,0.00,WeatherDisplay:10.37,2013-01-18 23:19:00,
2013-01-18 17:55:00,67.8,45.1,30.37,ESE,112,5.8,5.8,44,0.00,CLR,,0.00,WeatherDisplay:10.37,2013-01-18 23:55:00,
2013-01-18 18:04:00,67.8,45.1,30.37,ESE,112,5.8,5.8,44,0.00,CLR,,0.00,WeatherDisplay:10.37,2013-01-19 00:04:00,
2013-01-18 18:58:00,67.8,45.1,30.37,ESE,112,5.8,5.8,44,0.00,CLR,,0.00,WeatherDisplay:10.37,2013-01-19 00:58:00,
2013-01-18 19:13:00,67.8,45.1,30.37,ESE,112,5.8,5.8,44,0.00,CLR,,0.00,WeatherDisplay:10.37,2013-01-19 01:13:00,
2013-01-18 19:59:00,67.8,45.1,30.37,ESE,112,5.8,5.8,44,0.00,CLR,,0.00,WeatherDisplay:10.37,2013-01-19 01:59:00,
2013-01-18 20:45:00,67.8,45.1,30.37,ESE,112,5.8,5.8,44,0.00,CLR,,0.00,WeatherDisplay:10.37,2013-01-19 02:45:00,
2013-01-18 21:24:00,67.8,45.1,30.37,ESE,112,5.8,5.8,44,0.00,CLR,,0.00,WeatherDisplay:10.37,2013-01-19 03:24:00,